STARLINK-4720, 53800

Orbit data source: Space-Track

STARLINK-4720, 53800 is a payload satellite owned by SpaceX/Seattle (US) in LEO that was launched on Sun, 11 Sep 2022 UTC via an FALCON 9 launch vehicle from the Air Force Eastern Test Range (AFETR). Payload-class satellites include a variety of spacecraft equipped with specific instruments for various scientific and technological missions. These include communications satellites like Starlink; space stations such as the ISS; scientific satellites like the Hubble; Earth observation satellites from companies like Planet Labs, Umbra, and HawkEye 360; GPS; miniature CubeSats for education and research; and military/defense satellites.

Loading next visibility...
Identifier
53800, 2022-111AD
Orbit
LEO
Country
Flag of USUS
Related business
Manufacturer
SpaceX/Seattle
Mission
Operational Commercial Communications
Bus & Motor
STARLINK, Unknown motor
Mass
305 kg wet, ~290 kg dry
Launch date (UTC)
2022-09-11 (3 years ago)
Launch vehicle
FALCON 9
Launch site
Air Force Eastern Test Range (AFETR)
Object type
Payload
Rocket body
Debris
Shape & HBR
Box + 1 Pan, 10.1 m
Radar Cross Section
13.562 m², Large (>1 m²)

Expand to show TLE details & history
Last TLE update: 18 hours ago

TLE from 18 hours ago
0 STARLINK-4720
1 53800U 22111AD  25309.86369456 -.00000693  00000-0 -25446-4 0  9994
2 53800  53.2162  99.9406 0001337  89.3727 270.7418 15.08843935175125
Epoch: 2025-11-05T20:43Z
TLE epoch observation values (Epoch: 2025-11-05T20:43:43.209Z)
Latitude
-0.00007°
Longitude
103.68025°
Altitude
540.617 km
Speed
7.593 km/s
True Right ascension
06h 39m 45s
True Declination
0° 00' 00"
Sunlit
Object was in full shadow at epoch
Visualization orbit readout
Latitude
Unknown
Longitude
Unknown
Altitude
Unknown
Speed
Unknown
Apparent Right ascension
Unknown
Apparent Declination
Unknown
Sunlit
N/A
Visualization observer readout
Local Sidereal Time
10:52:06
Azimuth
Unknown
Elevation
Unknown
Doppler factor
Unknown
Orbital elements
Apogee altitude
540.901 km
Perigee altitude
539.052 km
Semi-major axis
6,918.113 km
Eccentricity
0.00013
Inclination
53.2162°
RAAN
99.9406°
Arg. of periapsis
89.3727°
True anomaly
270.72648°
Mean anomaly
270.7418°
Eccentric anomaly
270.73414°
Mean motion
3.77191 °/min
Orbital period
95.44 mins
BSTAR
-0.000025446
Loading maneuver chart data...
Computing Atmospheric mass density...
Loading historical data...
Loading historical data...
Loading historical data...
Loading historical data...
Loading historical data...
Loading historical data...
Loading historical data...

Documentation

Showing up to 5 results
|